Regional Weather Roundup
Issued by NWS

Home | Current Version | Previous Version | Text Only | Print | Product List | Glossary On
Versions: 1 2 3 4 5 6 7 8 9 10 11 12 13 14 15 16 17 18 19 20 21 22 23 24 25 26 27 28 29 30 31 32 33 34 35 36 37 38 39 40 41 42 43 44 45 46 47 48 49 50
000
ASUS43 KDTX 260310
RWRMI
MICHIGAN HOURLY REGIONAL WEATHER ROUNDUP
NATIONAL WEATHER SERVICE DETROIT/PONTIAC MI
1100 PM EDT FRI JUL 25 2014

NOTE: "FAIR" INDICATES FEW OR NO CLOUDS BELOW 12,000 FEET WITH NO
SIGNIFICANT WEATHER AND/OR OBSTRUCTION TO VISIBILITY.

MIZ047>049-052>055-059>063-066>070-074>076-081>083-260400-
SOUTHEAST LOWER MICHIGAN

CITY           SKY/WX    TMP DP  RH WIND       PRES   REMARKS
ADRIAN         MOCLDY    65  62  90 S3        29.99R
ALMA           PTCLDY    61  57  88 CALM      29.95R
ANN ARBOR      CLOUDY    65  56  72 S5        29.98R
BAD AXE        CLOUDY    63  58  84 CALM      29.95S
DETROIT CITY   CLOUDY    72  54  53 SW9       29.97R
DETROIT        CLOUDY    68  57  68 S6        29.98S
FLINT          MOCLDY    68  55  63 S6        29.95F
GROSSE ILE     CLOUDY    68  61  77 SW3       29.97S
HILLSDALE      MOCLDY    63  63  99 CALM      30.00S
HOWELL         MOCLDY    65  54  65 SW3       29.98R

CITY           SKY/WX    TMP DP  RH WIND       PRES   REMARKS
JACKSON        MOCLDY    65  58  78 SW3       29.98R
LAMBERTVILLE   CLOUDY    64  61  88 CALM      29.99S
LANSING        PTCLDY    65  56  72 S7        29.98R
LAPEER         NOT AVBL
MASON          PTCLDY    62  56  82 CALM      29.98R
MONROE         CLOUDY    64  63  94 CALM      29.96F
MT. CLEMENS    CLOUDY    70  57  62 SW6       29.95R
PONTIAC        CLOUDY    68  53  58 SW7       29.97R
PORT HOPE        N/A     67  55  65 S3        29.92S
PORT HURON     CLOUDY    64  59  82 S3        29.95F
TRI CITIES     MOCLDY    70  59  68 S3        29.94S
YPSILANTI      CLOUDY    70  57  63 S7        29.98S
$$
MIZ043>046-050>051-056>058-064>065-071>073-077>080-260400-
SOUTHWEST LOWER MICHIGAN

CITY           SKY/WX    TMP DP  RH WIND       PRES   REMARKS
BATTLE CREEK   MOCLDY    66  59  78 S7        29.97S
BENTON HARBOR  MOCLDY    65  57  75 SE3       29.96R
BIG RAPIDS     PTCLDY    64  56  76 CALM      29.93R
COLDWATER      MOCLDY    65  61  87 CALM      29.98S
HOLLAND        CLEAR     63  59  87 CALM      29.96R
GRAND RAPIDS   PTCLDY    65  58  78 S7        29.95F
KALAMAZOO      CLEAR     66  59  78 S5        29.97S
MARSHALL       PTCLDY    63  58  85 S3        29.97S
MUSKEGON       PTCLDY    68  57  68 S12       29.94S
$$
MIZ016>042-260400-
NORTHERN LOWER MICHIGAN

CITY           SKY/WX    TMP DP  RH WIND       PRES   REMARKS
ALPENA         MOCLDY    69  57  65 SW7       29.90F
BEAVER ISLAND  MOCLDY    64  59  86 S7        29.87S
BELLAIRE       CLOUDY    67  55  65 CALM      29.89S
CADILLAC       CLOUDY    65  58  78 SW9       29.92S
CHARLEVOIX     MOCLDY    66  57  73 S3        29.91S
FRANKFORT      CLOUDY    67  58  71 SW5       29.89S
GAYLORD        PTCLDY    63  55  75 S6        29.91F
GRAYLING       CLOUDY    65  58  78 S5        29.92F
HARBOR SPRINGS MOCLDY    65  59  79 CALM      29.88S
HOUGHTON LAKE  CLOUDY    66  56  70 SW5       29.93F
MANISTEE       MOCLDY    64  55  72 CALM      29.91S
OSCODA         MOCLDY    69  57  67 CALM      29.91F
PELLSTON       MOCLDY    65  57  75 CALM      29.88S
TRAVERSE CITY  CLOUDY    69  55  60 CALM      29.88S
$$
MIZ007>008-015-260400-
EASTERN UPPER MICHIGAN

CITY           SKY/WX    TMP DP  RH WIND       PRES   REMARKS
KINROSS        CLOUDY    61  59  94 SW5       29.87S
MACKINAC ISLAN RAIN      63  58  82 SW7       29.86F
NEWBERRY       MOCLDY    58  56  94 SW13      29.83F
S. S. MARIE    LGT RAIN  64  56  75 SW8       29.85S
$$
MIZ004>006-011>014-085-260400-
CENTRAL UPPER MICHIGAN

CITY           SKY/WX    TMP DP  RH WIND       PRES   REMARKS
MANISTIQUE     CLOUDY    59  57  94 S7        29.85R
ESCANABA       PTCLDY    64  57  77 S7        29.83F
MENOMINEE      MOCLDY    66  59  77 SW5       29.84S
SAWYER-GWINN   CLOUDY    66  61  82 SW7       29.83S
$$
MIZ001>003-009>011-084-260400-
WESTERN UPPER MICHIGAN

CITY           SKY/WX    TMP DP  RH WIND       PRES   REMARKS
IRON MOUNTAIN  CLOUDY    66  61  84 SE5       29.83S
HOUGHTON       CLOUDY    66  62  87 CALM      29.78S
COPPER HARBOR    N/A     65  61  87 CALM      29.77S
$$

ABBREVIATIONS USED IN REMARKS
   TC - TEMPERATURE IN CELSIUS
  WCI - WIND CHILL INDEX
   HX - HEAT INDEX
  VSB - VISIBILITY




USA.gov is the U.S. government's official web portal to all federal, state and local government web resources and services.